TCGUK LTBU-LTBA

Flight info

Callsign TCGUK
Flight time N/A
Altitude 3000
Route /
Aircraft C152/L-VD/A

Departure

Time 2026-04-22 19:11
Airport Tekirdağ Çorlu Airport (LTBU)

Arrival

Time N/A
Airport İstanbul Atatürk Airport (LTBA)
Time Latitude Longitude Altitude Speed Heading
2026-04-22 18:55 41.12770 27.90771 476 ft 0 kts 227°
2026-04-22 18:57 41.12731 27.90806 476 ft 0 kts 138°
2026-04-22 19:07 41.12729 27.90808 476 ft 3 kts 137°
2026-04-22 19:07 41.12739 27.90819 476 ft 3 kts 317°
2026-04-22 19:07 41.12752 27.90798 473 ft 3 kts 304°
2026-04-22 19:08 41.12778 27.90749 476 ft 8 kts 314°
2026-04-22 19:08 41.12817 27.90715 474 ft 6 kts 320°
2026-04-22 19:08 41.12846 27.90682 476 ft 0 kts 320°
2026-04-22 19:09 41.12848 27.90680 476 ft 3 kts 319°
2026-04-22 19:09 41.12895 27.90627 475 ft 11 kts 320°
2026-04-22 19:10 41.12955 27.90575 474 ft 9 kts
2026-04-22 19:10 41.13063 27.90730 480 ft 47 kts 49°
2026-04-22 19:10 41.13349 27.91166 577 ft 67 kts 50°
2026-04-22 19:10 41.13645 27.91635 744 ft 69 kts 50°
2026-04-22 19:11 41.13956 27.92105 948 ft 68 kts 49°
2026-04-22 19:11 41.14241 27.92577 1171 ft 63 kts 54°
2026-04-22 19:11 41.14488 27.93055 1391 ft 65 kts 56°
2026-04-22 19:11 41.14711 27.93551 1603 ft 62 kts 59°
2026-04-22 19:12 41.14958 27.94074 1724 ft 74 kts 56°
2026-04-22 19:12 41.15345 27.94565 1821 ft 81 kts 34°
2026-04-22 19:12 41.15759 27.95077 1943 ft 79 kts 53°
2026-04-22 19:12 41.16068 27.95624 2139 ft 73 kts 54°
2026-04-22 19:13 41.16371 27.96179 2308 ft 68 kts 69°
2026-04-22 19:13 41.16250 27.96796 2399 ft 81 kts 137°
2026-04-22 19:13 41.15661 27.97059 2357 ft 98 kts 163°
2026-04-22 19:13 41.15012 27.97279 2431 ft 96 kts 161°
2026-04-22 19:14 41.14383 27.97570 2455 ft 97 kts 148°
2026-04-22 19:14 41.13912 27.98155 2498 ft 89 kts 120°
2026-04-22 19:14 41.13710 27.98906 2562 ft 86 kts 101°
2026-04-22 19:14 41.13631 27.99683 2623 ft 84 kts 94°
2026-04-22 19:15 41.13593 28.00482 2536 ft 95 kts 94°
2026-04-22 19:15 41.13545 28.01355 1764 ft 117 kts 94°
2026-04-22 19:15 41.13314 28.02287 1585 ft 96 kts 109°
2026-04-22 19:15 41.13111 28.03041 1629 ft 56 kts 12°
2026-04-22 19:16 41.12743 28.02890 753 ft 52 kts 343°
2026-04-22 19:16 41.12879 28.02977 537 ft 68 kts 114°
2026-04-22 19:16 41.12631 28.03169 1229 ft 106 kts 341°